Regional Weather Roundup
Issued by NWS Jackson, KY

Home | Current Version | Previous Version | Text Only | Print | Product List | Glossary Off
Versions: 1 2 3 4 5 6 7 8 9 10 11 12 13 14 15 16 17 18 19 20 21 22 23 24 25 26 27 28 29 30 31 32 33 34 35 36 37 38 39 40 41 42 43 44 45 46 47 48 49 50

000
ASUS43 KJKL 260919
RWRJKL

EAST KENTUCKY HOURLY WEATHER ROUNDUP
NATIONAL WEATHER SERVICE JACKSON KY
400 AM EST FRI DEC 26 2014

NOTE: "FAIR" INDICATES FEW OR NO CLOUDS BELOW 12,000 FEET WITH
NO SIGNIFICANT WEATHER AND/OR OBSTRUCTIONS TO VISIBILITY.

* THESE REPORTS ARE NOT UNDER NWS QUALITY CONTROL AND MAY NOT
  REPORT WEATHER SUCH AS PRECIPITATION AND FOG.

KYZ079-080-083-085-087-088-110-112-115-119-120-261000
...EASTERN KENTUCKY...

CITY           SKY/WX    TMP DP  RH WIND       PRES   REMARKS
JACKSON        CLEAR     32  28  85 S6        30.22S WCI  26
LONDON         CLEAR     28  23  81 SE5       30.25R WCI  23
SOMERSET*      CLEAR     28  28 100 CALM      30.27R
MONTICELLO*    CLEAR     24  23  96 CALM      30.27S
MIDDLESBORO*   CLEAR     27  27  98 CALM      30.28R
HARLAN APT*    MOSUNNY   30  30 100 CALM      30.26R
HAZARD APT*    SUNNY     28  28 100 CALM      30.24R
BLACK MTN*       N/A     39   3  22 SW8         N/A  WCI  34
PIKEVILLE APT* CLEAR     34  30  86 S5        30.22F WCI  30
BIG SANDY*     SUNNY     32  31  95 CALM      30.23S
MOREHEAD APT*  SUNNY     34  30  86 SE3       30.25S
ASHLAND*       CLEAR    N/A N/A N/A CALM      30.22S
$$

KYZ035-036-041-042-044-050-067-078-099-261000
...CENTRAL KENTUCKY...

CITY           SKY/WX    TMP DP  RH WIND       PRES   REMARKS
MT STERLING*   PTCLDY    32  32 100 SW7       30.24S WCI  26
FLEMING/MASON* CLEAR     32  30  93 S5        30.24S WCI  27
DANVILLE*      CLEAR     34  32  93 S6        30.25R WCI  29
RICHMOND*      CLEAR     36  30  80 SW5       30.23R WCI  32
LEXINGTON      CLEAR     32  29  88 S9        30.23R WCI  24
FRANKFORT      CLEAR     29  26  89 S5        30.22R WCI  24
$$

KYZ091>093-OHZ055-061-077-WVZ005-015-034-035-042-261000
...SOUTHERN OHIO/WEST VIRGINIA...

CITY           SKY/WX    TMP DP  RH WIND       PRES   REMARKS
COVINGTON      CLEAR     32  26  78 S6        30.21R WCI  26
COLUMBUS       CLEAR     32  27  81 SE3       30.22R
DAYTON         CLEAR     33  30  88 S7        30.21R WCI  27
WILMINGTON     CLEAR     31  27  85 S7        30.21R WCI  24
HUNTINGTON     CLEAR     27  26  96 CALM      30.23S
CHARLESTON     CLEAR     27  25  92 CALM      30.25R
PINEVILLE*     CLEAR     28  28 100 MISG      30.30S
BECKLEY        CLEAR     31  26  82 S5        30.22F WCI  26
BLUEFIELD      CLEAR     36  23  59 SW5       30.21F WCI  32
$$

VAZ002-007-008-TNZ017-027-036-066-071-261000
...SOUTHWEST VIRGINIA/EAST TENNESSEE...

CITY           SKY/WX    TMP DP  RH WIND       PRES   REMARKS
WISE*          PTCLDY    32  32 100 S5        30.22S WCI  27
JONESVILLE*    MOSUNNY   25  25 100 CALM      30.30R
ABINGDON*      PTCLDY    32  30  92 CALM      30.24F
BRISTOL        CLEAR     28  26  92 CALM      30.26F
KNOXVILLE      CLEAR     30  28  92 CALM      30.26
OAK RIDGE      FOG       30  29  96 CALM      30.29R VSB 1/4
CROSSVILLE     CLEAR     31  27  85 CALM      30.24R
NASHVILLE      PTCLDY    32  30  92 S5        30.25R WCI  27
$$

...KEY TO REMARKS...
VSB - VISIBILITY IN MILES
WCI - WIND CHILL INDEX
HX  - HEAT INDEX

$$


USA.gov is the U.S. government's official web portal to all federal, state and local government web resources and services.